This demonstration page uses our WeatherBlox Daily Observations layout. Learn more.

Left ArrowRight Arrow

38.83388, -104.82136

Hourly Observations for April 28, 2022

Temp ( °F °C ) Dew Point ( °F °C ) Humidity (%) Winds ( mph kmh ) Pressure ( in mb ) Visibility ( mi km ) Precip ( " mm )
12:58 am 00:58 Clear 53 11.6 31 -0.6 43 43 S 5 7 29.79 1009 10 16 0.00 0.00
1:58 am 01:58 Clear 54 12.1 24 -4.5 31 31 Calm 29.76 1008 10 16 0.00 0.00
2:58 am 02:58 Clear 54 12.3 18 -7.7 24 24 Calm 29.76 1008 10 16 0.00 0.00
3:58 am 03:58 Clear 54 12.1 16 -9 22 22 Calm 29.76 1008 10 16 0.00 0.00
4:58 am 04:58 Clear 59 14.9 10 -12.4 14 14 W 6 9 29.62 1003 10 16 0.00 0.00
5:58 am 05:58 Clear 54 12.1 12 -10.9 19 19 WNW 6 9 29.61 1003 10 16 0.00 0.00
6:58 am 06:58 Sunny 56 13.6 15 -9.6 19 19 Calm 29.65 1004 10 16 0.00 0.00
7:58 am 07:58 undefined 62 16.8 17 -8.4 17 17 ESE 5 7 29.68 1005 10 16 0.00 0.00
8:58 am 08:58 undefined 65 18.1 13 -10.8 13 13 NE 8 13 29.72 1007 10 16 0.00 0.00
9:58 am 09:58 undefined 68 19.8 15 -9.4 13 13 E 5 7 29.71 1006 10 16 0.00 0.00
10:58 am 10:58 Sunny 66 19.1 12 -11 12 12 ENE 3 6 29.73 1007 10 16 0.00 0.00
11:58 am 11:58 Mostly Sunny 70 20.9 11 -11.9 10 10 E 6 9 29.73 1007 10 16 0.00 0.00
12:58 pm 12:58 Sunny 71 21.5 11 -11.4 10 10 E 8 13 29.70 1006 10 16 0.00 0.00
1:58 pm 13:58 Mostly Sunny 72 22.1 12 -11 10 10 SE 12 19 29.69 1005 10 16 0.00 0.00
2:14 pm 14:14 Mostly Sunny 72 22 12 -11 10 10 SSE 20 31 29.67 1005 10 16 0.00 0.00
2:58 pm 14:58 Mostly Cloudy 72 22.3 10 -12.1 9 9 SE 16 26 29.62 1003 10 16 0.00 0.00
3:58 pm 15:58 Partly Cloudy 70 21.1 13 -10.5 11 11 S 9 15 29.59 1002 10 16 0.00 0.00
4:58 pm 16:58 Mostly Sunny 69 20.3 16 -9 13 13 SSE 18 30 29.52 1000 10 16 0.00 0.00
5:58 pm 17:58 Partly Cloudy 67 19.7 15 -9.5 13 13 SE 14 22 29.52 1000 10 16 0.00 0.00
6:58 pm 18:58 Sunny 65 18.4 18 -7.9 16 16 SSE 12 19 29.49 999 10 16 0.00 0.00
7:58 pm 19:58 Mostly Cloudy 65 18.1 17 -8.1 16 16 S 10 17 29.45 997 10 16 0.00 0.00
8:58 pm 20:58 Mostly Clear 64 17.6 18 -7.8 17 17 S 14 22 29.43 997 10 16 0.00 0.00
9:58 pm 21:58 Clear 60 15.5 18 -8 19 19 Calm 29.40 996 10 16 0.00 0.00
10:58 pm 22:58 Clear 60 15.4 16 -8.8 18 18 SSE 7 11 29.38 995 10 16 0.00 0.00
11:58 pm 23:58 Clear 58 14.5 17 -8.2 20 20 WNW 9 15 29.34 994 10 16 0.00 0.00

Powered by AerisWeather